Location: Cheyres
(46.8153°N, 6.7877°E)
Time: 21:04:26
(UTC+00:00)

Cosmos 1328 Rocket - Visible Passes

Search period start: 19 September 2021 00:00
Search period end: 29 September 2021 00:00
Orbit: 600 x 628 km, 82.5° (Epoch: 19 September)

Date Brightness Start Highest point End Pass type
(mag) Time Alt. Az. Time Alt. Az. Time Alt. Az.
19 Sep 5.1 03:06:57 10° SSE 03:10:54 35° E 03:14:51 10° NNE visible
19 Sep 4.7 04:45:13 10° SW 04:48:45 24° WNW 04:52:17 10° NNW visible
20 Sep 4.0 03:22:32 11° S 03:26:34 61° E 03:30:52 10° NNE visible
21 Sep 6.5 02:03:58 10° E 02:05:14 11° E 02:06:30 10° ENE visible
21 Sep 3.4 03:39:10 18° SSW 03:42:20 76° W 03:46:41 10° N visible
22 Sep 6.0 02:18:36 14° ESE 02:20:44 19° E 02:23:47 10° NE visible
22 Sep 3.9 03:55:42 21° SW 03:58:10 43° WNW 04:02:19 10° N visible
23 Sep 5.1 02:35:03 27° ESE 02:36:19 32° E 02:40:09 10° NNE visible
23 Sep 4.6 04:12:08 19° WSW 04:14:05 26° WNW 04:17:44 10° NNW visible
24 Sep 4.1 02:51:25 51° SE 02:51:58 55° E 02:56:12 10° NNE visible
24 Sep 5.2 04:28:30 13° W 04:30:06 16° WNW 04:32:47 10° NNW visible
25 Sep 3.3 03:07:42 83° W 03:07:43 83° W 03:12:03 10° N visible
26 Sep 6.1 01:46:51 17° ENE 01:46:51 17° ENE 01:49:00 10° NE visible
26 Sep 3.9 03:23:56 45° WNW 03:23:56 45° WNW 03:27:43 10° N visible
27 Sep 5.7 02:03:03 24° ENE 02:03:03 24° ENE 02:05:27 10° NNE visible
27 Sep 4.7 03:40:07 26° NW 03:40:07 26° NW 03:43:11 10° NNW visible
28 Sep 5.3 02:19:11 30° NE 02:19:11 30° NE 02:21:32 10° NNE visible
28 Sep 5.3 03:56:15 16° NW 03:56:15 16° NW 03:58:19 10° NNW visible
